User: anonymous   Login
Location: Unspecified
(0.0000°N, 0.0000°E)
Time: 19:55:41
(UTC+00:00)
Language:

Nimbus 3 - Orbit

View from above orbital plane
View from above orbital plane
View from above satellite
View from above satellite

Ground track
Ground track

The orbit data is extracted from the following two-line orbital elements,

1  3890U 69037A   18016.78800248 -.00000031 +00000-0 +24750-4 0  9995
2  3890 099.9424 289.3774 0038795 251.5638 177.0452 13.42517860388362
Epoch (UTC): 16 January 2018 18:54:43
Eccentricity: 0.0038795
inclination: 99.9424°
perigee height: 1071 km
apogee height: 1129 km
right ascension of ascending node: 289.3774°
argument of perigee: 251.5638°
revolutions per day: 13.42517860
mean anomaly at epoch: 177.0452°
orbit number at epoch: 38836

The dashed part of the orbit path shows where the satellite is in the earth's shadow,  

DLR